Year,Month,Day,Hour,Minute,Value (Times are PST for temperature in C)
2009,06,22,00,00,13.30
2009,06,22,00,01,13.30
2009,06,22,00,02,13.30
2009,06,22,00,03,13.30
2009,06,22,00,04,13.30
2009,06,22,00,05,13.30
2009,06,22,00,06,13.30
2009,06,22,00,07,13.30
2009,06,22,00,08,13.30
2009,06,22,00,09,13.30
2009,06,22,00,10,13.30
2009,06,22,00,11,13.30
2009,06,22,00,12,13.30
2009,06,22,00,13,13.30
2009,06,22,00,14,13.30
2009,06,22,00,15,13.40
2009,06,22,00,16,13.40
2009,06,22,00,17,13.40
2009,06,22,00,18,13.40
2009,06,22,00,19,13.40
2009,06,22,00,20,13.40
2009,06,22,00,21,13.40
2009,06,22,00,22,13.40
2009,06,22,00,23,13.40
2009,06,22,00,24,13.40
2009,06,22,00,25,13.40
2009,06,22,00,26,13.40
2009,06,22,00,27,13.40
2009,06,22,00,28,13.40
2009,06,22,00,29,13.40
2009,06,22,00,30,13.40
2009,06,22,00,31,13.40
2009,06,22,00,32,13.40
2009,06,22,00,33,13.40
2009,06,22,00,34,13.40
2009,06,22,00,35,13.40
2009,06,22,00,36,13.40
2009,06,22,00,37,13.40
2009,06,22,00,38,13.40
2009,06,22,00,39,13.40
2009,06,22,00,40,13.40
2009,06,22,00,41,13.40
2009,06,22,00,42,13.40
2009,06,22,00,43,13.40
2009,06,22,00,44,13.30
2009,06,22,00,45,13.30
2009,06,22,00,46,13.30
2009,06,22,00,47,13.30
2009,06,22,00,48,13.30
2009,06,22,00,49,13.30
2009,06,22,00,50,13.30
2009,06,22,00,51,13.30
2009,06,22,00,52,13.30
2009,06,22,00,53,13.30
2009,06,22,00,54,13.30
2009,06,22,00,55,13.30
2009,06,22,00,56,13.20
2009,06,22,00,57,13.20
2009,06,22,00,58,13.20
2009,06,22,00,59,13.20
2009,06,22,01,00,13.20
2009,06,22,01,01,13.10
2009,06,22,01,02,13.10
2009,06,22,01,03,13.10
2009,06,22,01,04,13.10
2009,06,22,01,05,13.10
2009,06,22,01,06,13.10
2009,06,22,01,07,13.10
2009,06,22,01,08,13.00
2009,06,22,01,09,13.00
2009,06,22,01,10,13.00
2009,06,22,01,11,12.90
2009,06,22,01,12,12.90
2009,06,22,01,13,12.90
2009,06,22,01,14,12.80
2009,06,22,01,15,12.80
2009,06,22,01,16,12.80
2009,06,22,01,17,12.80
2009,06,22,01,18,12.80
2009,06,22,01,19,12.80
2009,06,22,01,20,12.80
2009,06,22,01,21,12.70
2009,06,22,01,22,12.70
2009,06,22,01,23,12.70
2009,06,22,01,24,12.70
2009,06,22,01,25,12.70
2009,06,22,01,26,12.70
2009,06,22,01,27,12.70
2009,06,22,01,28,12.70
2009,06,22,01,29,12.60
2009,06,22,01,30,12.60
2009,06,22,01,31,12.60
2009,06,22,01,32,12.60
2009,06,22,01,33,12.60
2009,06,22,01,34,12.50
2009,06,22,01,35,12.50
2009,06,22,01,36,12.40
2009,06,22,01,37,12.40
2009,06,22,01,38,12.40
2009,06,22,01,39,12.40
2009,06,22,01,40,12.40
2009,06,22,01,41,12.30
2009,06,22,01,42,12.30
2009,06,22,01,43,12.30
2009,06,22,01,44,12.30
2009,06,22,01,45,12.20
2009,06,22,01,46,12.20
2009,06,22,01,47,12.20
2009,06,22,01,48,12.20
2009,06,22,01,49,12.10
2009,06,22,01,50,12.10
2009,06,22,01,51,12.10
2009,06,22,01,52,12.10
2009,06,22,01,53,12.10
2009,06,22,01,54,12.10
2009,06,22,01,55,12.10
2009,06,22,01,56,12.10
2009,06,22,01,57,12.10
2009,06,22,01,58,12.10
2009,06,22,01,59,12.10
2009,06,22,02,00,12.00
2009,06,22,02,01,12.00
2009,06,22,02,02,12.00
2009,06,22,02,03,12.00
2009,06,22,02,04,11.90
2009,06,22,02,05,11.90
2009,06,22,02,06,11.90
2009,06,22,02,07,11.90
2009,06,22,02,08,11.90
2009,06,22,02,09,11.90
2009,06,22,02,10,11.80
2009,06,22,02,11,11.80
2009,06,22,02,12,11.80
2009,06,22,02,13,11.80
2009,06,22,02,14,11.80
2009,06,22,02,15,11.80
2009,06,22,02,16,11.80
2009,06,22,02,17,11.80
2009,06,22,02,18,11.80
2009,06,22,02,19,11.80
2009,06,22,02,20,11.80
2009,06,22,02,21,11.80
2009,06,22,02,22,11.80
2009,06,22,02,23,11.80
2009,06,22,02,24,11.80
2009,06,22,02,25,11.80
2009,06,22,02,26,11.70
2009,06,22,02,27,11.70
2009,06,22,02,28,11.70
2009,06,22,02,29,11.70
2009,06,22,02,30,11.70
2009,06,22,02,31,11.70
2009,06,22,02,32,11.70
2009,06,22,02,33,11.70
2009,06,22,02,34,11.70
2009,06,22,02,35,11.60
2009,06,22,02,36,11.60
2009,06,22,02,37,11.60
2009,06,22,02,38,11.60
2009,06,22,02,39,11.60
2009,06,22,02,40,11.60
2009,06,22,02,41,11.60
2009,06,22,02,42,11.60
2009,06,22,02,43,11.50
2009,06,22,02,44,11.50
2009,06,22,02,45,11.50
2009,06,22,02,46,11.50
2009,06,22,02,47,11.50
2009,06,22,02,48,11.50
2009,06,22,02,49,11.40
2009,06,22,02,50,11.40
2009,06,22,02,51,11.40
2009,06,22,02,52,11.40
2009,06,22,02,53,11.40
2009,06,22,02,54,11.40
2009,06,22,02,55,11.40
2009,06,22,02,56,11.30
2009,06,22,02,57,11.30
2009,06,22,02,58,11.30
2009,06,22,02,59,11.30
2009,06,22,03,00,11.30
2009,06,22,03,01,11.30
2009,06,22,03,02,11.30
2009,06,22,03,03,11.30
2009,06,22,03,04,11.30
2009,06,22,03,05,11.30
2009,06,22,03,06,11.30
2009,06,22,03,07,11.30
2009,06,22,03,08,11.30
2009,06,22,03,09,11.30
2009,06,22,03,10,11.30
2009,06,22,03,11,11.30
2009,06,22,03,12,11.30
2009,06,22,03,13,11.30
2009,06,22,03,14,11.30
2009,06,22,03,15,11.30
2009,06,22,03,16,11.30
2009,06,22,03,17,11.30
2009,06,22,03,18,11.20
2009,06,22,03,19,11.20
2009,06,22,03,20,11.20
2009,06,22,03,21,11.20
2009,06,22,03,22,11.20
2009,06,22,03,23,11.10
2009,06,22,03,24,11.10
2009,06,22,03,25,11.00
2009,06,22,03,26,10.90
2009,06,22,03,27,10.90
2009,06,22,03,28,10.90
2009,06,22,03,29,10.80
2009,06,22,03,30,10.80
2009,06,22,03,31,10.80
2009,06,22,03,32,10.80
2009,06,22,03,33,10.70
2009,06,22,03,34,10.70
2009,06,22,03,35,10.70
2009,06,22,03,36,10.70
2009,06,22,03,37,10.70
2009,06,22,03,38,10.70
2009,06,22,03,39,10.60
2009,06,22,03,40,10.60
2009,06,22,03,41,10.60
2009,06,22,03,42,10.60
2009,06,22,03,43,10.60
2009,06,22,03,44,10.60
2009,06,22,03,45,10.60
2009,06,22,03,46,10.60
2009,06,22,03,47,10.60
2009,06,22,03,48,10.60
2009,06,22,03,49,10.60
2009,06,22,03,50,10.60
2009,06,22,03,51,10.60
2009,06,22,03,52,10.50
2009,06,22,03,53,10.50
2009,06,22,03,54,10.50
2009,06,22,03,55,10.40
2009,06,22,03,56,10.40
2009,06,22,03,57,10.40
2009,06,22,03,58,10.40
2009,06,22,03,59,10.30
2009,06,22,04,00,10.30
2009,06,22,04,01,10.30
2009,06,22,04,02,10.30
2009,06,22,04,03,10.30
2009,06,22,04,04,10.30
2009,06,22,04,05,10.20
2009,06,22,04,06,10.20
2009,06,22,04,07,10.20
2009,06,22,04,08,10.20
2009,06,22,04,09,10.20
2009,06,22,04,10,10.10
2009,06,22,04,11,10.10
2009,06,22,04,12,10.10
2009,06,22,04,13,10.10
2009,06,22,04,14,10.10
2009,06,22,04,15,10.10
2009,06,22,04,16,10.00
2009,06,22,04,17,10.00
2009,06,22,04,18,10.00
2009,06,22,04,19,9.90
2009,06,22,04,20,9.90
2009,06,22,04,21,9.90
2009,06,22,04,22,9.90
2009,06,22,04,23,9.90
2009,06,22,04,24,9.90
2009,06,22,04,25,9.90
2009,06,22,04,26,9.90
2009,06,22,04,27,9.80
2009,06,22,04,28,9.80
2009,06,22,04,29,9.80
2009,06,22,04,30,9.80
2009,06,22,04,31,9.80
2009,06,22,04,32,9.80
2009,06,22,04,33,9.80
2009,06,22,04,34,9.80
2009,06,22,04,35,9.70
2009,06,22,04,36,9.70
2009,06,22,04,37,9.70
2009,06,22,04,38,9.70
2009,06,22,04,39,9.70
2009,06,22,04,40,9.70
2009,06,22,04,41,9.70
2009,06,22,04,42,9.70
2009,06,22,04,43,9.70
2009,06,22,04,44,9.70
2009,06,22,04,45,9.70
2009,06,22,04,46,9.70
2009,06,22,04,47,9.70
2009,06,22,04,48,9.70
2009,06,22,04,49,9.70
2009,06,22,04,50,9.70
2009,06,22,04,51,9.70
2009,06,22,04,52,9.70
2009,06,22,04,53,9.70
2009,06,22,04,54,9.70
2009,06,22,04,55,9.70
2009,06,22,04,56,9.70
2009,06,22,04,57,9.70
2009,06,22,04,58,9.80
2009,06,22,04,59,9.80
2009,06,22,05,00,9.80
2009,06,22,05,01,9.80
2009,06,22,05,02,9.80
2009,06,22,05,03,9.80
2009,06,22,05,04,9.80
2009,06,22,05,05,9.80
2009,06,22,05,06,9.90
2009,06,22,05,07,9.90
2009,06,22,05,08,9.90
2009,06,22,05,09,9.90
2009,06,22,05,10,10.00
2009,06,22,05,11,10.00
2009,06,22,05,12,10.10
2009,06,22,05,13,10.10
2009,06,22,05,14,10.10
2009,06,22,05,15,10.10
2009,06,22,05,16,10.20
2009,06,22,05,17,10.20
2009,06,22,05,18,10.20
2009,06,22,05,19,10.20
2009,06,22,05,20,10.20
2009,06,22,05,21,10.20
2009,06,22,05,22,10.20
2009,06,22,05,23,10.30
2009,06,22,05,24,10.30
2009,06,22,05,25,10.30
2009,06,22,05,26,10.30
2009,06,22,05,27,10.30
2009,06,22,05,28,10.30
2009,06,22,05,29,10.30
2009,06,22,05,30,10.30
2009,06,22,05,31,10.40
2009,06,22,05,32,10.40
2009,06,22,05,33,10.40
2009,06,22,05,34,10.40
2009,06,22,05,35,10.40
2009,06,22,05,36,10.50
2009,06,22,05,37,10.50
2009,06,22,05,38,10.50
2009,06,22,05,39,10.60
2009,06,22,05,40,10.60
2009,06,22,05,41,10.60
2009,06,22,05,42,10.60
2009,06,22,05,43,10.60
2009,06,22,05,44,10.70
2009,06,22,05,45,10.70
2009,06,22,05,46,10.70
2009,06,22,05,47,10.70
2009,06,22,05,48,10.70
2009,06,22,05,49,10.70
2009,06,22,05,50,10.70
2009,06,22,05,51,10.70
2009,06,22,05,52,10.80
2009,06,22,05,53,10.80
2009,06,22,05,54,10.80
2009,06,22,05,55,10.80
2009,06,22,05,56,10.80
2009,06,22,05,57,10.80
2009,06,22,05,58,10.80
2009,06,22,05,59,10.80
2009,06,22,06,00,10.80
2009,06,22,06,01,10.80
2009,06,22,06,02,10.80
2009,06,22,06,03,10.90
2009,06,22,06,04,10.90
2009,06,22,06,05,10.90
2009,06,22,06,06,10.90
2009,06,22,06,07,10.90
2009,06,22,06,08,10.90
2009,06,22,06,09,10.90
2009,06,22,06,10,11.00
2009,06,22,06,11,11.00
2009,06,22,06,12,11.00
2009,06,22,06,13,11.00
2009,06,22,06,14,11.10
2009,06,22,06,15,11.10
2009,06,22,06,16,11.10
2009,06,22,06,17,11.10
2009,06,22,06,18,11.10
2009,06,22,06,19,11.10
2009,06,22,06,20,11.10
2009,06,22,06,21,11.10
2009,06,22,06,22,11.20
2009,06,22,06,23,11.20
2009,06,22,06,24,11.20
2009,06,22,06,25,11.20
2009,06,22,06,26,11.20
2009,06,22,06,27,11.20
2009,06,22,06,28,11.20
2009,06,22,06,29,11.30
2009,06,22,06,30,11.30
2009,06,22,06,31,11.30
2009,06,22,06,32,11.30
2009,06,22,06,33,11.30
2009,06,22,06,34,11.30
2009,06,22,06,35,11.30
2009,06,22,06,36,11.30
2009,06,22,06,37,11.30
2009,06,22,06,38,11.40
2009,06,22,06,39,11.40
2009,06,22,06,40,11.40
2009,06,22,06,41,11.40
2009,06,22,06,42,11.50
2009,06,22,06,43,11.50
2009,06,22,06,44,11.50
2009,06,22,06,45,11.50
2009,06,22,06,46,11.60
2009,06,22,06,47,11.60
2009,06,22,06,48,11.60
2009,06,22,06,49,11.60
2009,06,22,06,50,11.60
2009,06,22,06,51,11.60
2009,06,22,06,52,11.60
2009,06,22,06,53,11.60
2009,06,22,06,54,11.70
2009,06,22,06,55,11.70
2009,06,22,06,56,11.70
2009,06,22,06,57,11.70
2009,06,22,06,58,11.70
2009,06,22,06,59,11.70
2009,06,22,07,00,11.70
2009,06,22,07,01,11.70
2009,06,22,07,02,11.80
2009,06,22,07,03,11.80
2009,06,22,07,04,11.80
2009,06,22,07,05,11.80
2009,06,22,07,06,11.80
2009,06,22,07,07,11.80
2009,06,22,07,08,11.80
2009,06,22,07,09,11.80
2009,06,22,07,10,11.80
2009,06,22,07,11,11.80
2009,06,22,07,12,11.90
2009,06,22,07,13,11.90
2009,06,22,07,14,11.90
2009,06,22,07,15,11.90
2009,06,22,07,16,11.90
2009,06,22,07,17,11.90
2009,06,22,07,18,12.00
2009,06,22,07,19,12.00
2009,06,22,07,20,12.00
2009,06,22,07,21,12.00
2009,06,22,07,22,12.10
2009,06,22,07,23,12.10
2009,06,22,07,24,12.10
2009,06,22,07,25,12.10
2009,06,22,07,26,12.10
2009,06,22,07,27,12.10
2009,06,22,07,28,12.20
2009,06,22,07,29,12.20
2009,06,22,07,30,12.20
2009,06,22,07,31,12.20
2009,06,22,07,32,12.20
2009,06,22,07,33,12.20
2009,06,22,07,34,12.20
2009,06,22,07,35,12.30
2009,06,22,07,36,12.30
2009,06,22,07,37,12.30
2009,06,22,07,38,12.30
2009,06,22,07,39,12.30
2009,06,22,07,40,12.30
2009,06,22,07,41,12.30
2009,06,22,07,42,12.30
2009,06,22,07,43,12.30
2009,06,22,07,44,12.30
2009,06,22,07,45,12.40
2009,06,22,07,46,12.40
2009,06,22,07,47,12.40
2009,06,22,07,48,12.40
2009,06,22,07,49,12.40
2009,06,22,07,50,12.40
2009,06,22,07,51,12.40
2009,06,22,07,52,12.40
2009,06,22,07,53,12.50
2009,06,22,07,54,12.50
2009,06,22,07,55,12.50
2009,06,22,07,56,12.50
2009,06,22,07,57,12.50
2009,06,22,07,58,12.60
2009,06,22,07,59,12.60
2009,06,22,08,00,12.60
2009,06,22,08,01,12.60
2009,06,22,08,02,12.60
2009,06,22,08,03,12.60
2009,06,22,08,04,12.60
2009,06,22,08,05,12.60
2009,06,22,08,06,12.60
2009,06,22,08,07,12.70
2009,06,22,08,08,12.70
2009,06,22,08,09,12.70
2009,06,22,08,10,12.70
2009,06,22,08,11,12.70
2009,06,22,08,12,12.70
2009,06,22,08,13,12.70
2009,06,22,08,14,12.80
2009,06,22,08,15,12.80
2009,06,22,08,16,12.80
2009,06,22,08,17,12.80
2009,06,22,08,18,12.80
2009,06,22,08,19,12.80
2009,06,22,08,20,12.80
2009,06,22,08,21,12.80
2009,06,22,08,22,12.90
2009,06,22,08,23,12.90
2009,06,22,08,24,12.90
2009,06,22,08,25,12.90
2009,06,22,08,26,12.90
2009,06,22,08,27,12.90
2009,06,22,08,28,13.00
2009,06,22,08,29,13.00
2009,06,22,08,30,13.10
2009,06,22,08,31,13.10
2009,06,22,08,32,13.10
2009,06,22,08,33,13.10
2009,06,22,08,34,13.20
2009,06,22,08,35,13.20
2009,06,22,08,36,13.20
2009,06,22,08,37,13.20
2009,06,22,08,38,13.30
2009,06,22,08,39,13.30
2009,06,22,08,40,13.30
2009,06,22,08,41,13.30
2009,06,22,08,42,13.40
2009,06,22,08,43,13.40
2009,06,22,08,44,13.40
2009,06,22,08,45,13.40
2009,06,22,08,46,13.50
2009,06,22,08,47,13.50
2009,06,22,08,48,13.60
2009,06,22,08,49,13.60
2009,06,22,08,50,13.60
2009,06,22,08,51,13.70
2009,06,22,08,52,13.70
2009,06,22,08,53,13.70
2009,06,22,08,54,13.70
2009,06,22,08,55,13.80
2009,06,22,08,56,13.80
2009,06,22,08,57,13.80
2009,06,22,08,58,13.80
2009,06,22,08,59,13.80
2009,06,22,09,00,13.90
2009,06,22,09,01,13.90
2009,06,22,09,02,13.90
2009,06,22,09,03,13.90
2009,06,22,09,04,14.00
2009,06,22,09,05,14.00
2009,06,22,09,06,14.00
2009,06,22,09,07,14.10
2009,06,22,09,08,14.10
2009,06,22,09,09,14.10
2009,06,22,09,10,14.10
2009,06,22,09,11,14.10
2009,06,22,09,12,14.20
2009,06,22,09,13,14.20
2009,06,22,09,14,14.20
2009,06,22,09,15,14.20
2009,06,22,09,16,14.20
2009,06,22,09,17,14.20
2009,06,22,09,18,14.20
2009,06,22,09,19,14.30
2009,06,22,09,20,14.30
2009,06,22,09,21,14.30
2009,06,22,09,22,14.30
2009,06,22,09,23,14.30
2009,06,22,09,24,14.30
2009,06,22,09,25,14.30
2009,06,22,09,26,14.30
2009,06,22,09,27,14.30
2009,06,22,09,28,14.30
2009,06,22,09,29,14.30
2009,06,22,09,30,14.30
2009,06,22,09,31,14.40
2009,06,22,09,32,14.30
2009,06,22,09,33,14.30
2009,06,22,09,34,14.30
2009,06,22,09,35,14.30
2009,06,22,09,36,14.40
2009,06,22,09,37,14.30
2009,06,22,09,38,14.30
2009,06,22,09,39,14.40
2009,06,22,09,40,14.30
2009,06,22,09,41,14.30
2009,06,22,09,42,14.30
2009,06,22,09,43,14.30
2009,06,22,09,44,14.30
2009,06,22,09,45,14.30
2009,06,22,09,46,14.40
2009,06,22,09,47,14.40
2009,06,22,09,48,14.40
2009,06,22,09,49,14.40
2009,06,22,09,50,14.40
2009,06,22,09,51,14.40
2009,06,22,09,52,14.40
2009,06,22,09,53,14.50
2009,06,22,09,54,14.50
2009,06,22,09,55,14.60
2009,06,22,09,56,14.60
2009,06,22,09,57,14.60
2009,06,22,09,58,14.60
2009,06,22,09,59,14.70
2009,06,22,10,00,14.70
2009,06,22,10,01,14.70
2009,06,22,10,02,14.70
2009,06,22,10,03,14.70
2009,06,22,10,04,14.80
2009,06,22,10,05,14.80
2009,06,22,10,06,14.80
2009,06,22,10,07,14.90
2009,06,22,10,08,14.90
2009,06,22,10,09,15.00
2009,06,22,10,10,15.00
2009,06,22,10,11,15.00
2009,06,22,10,12,15.00
2009,06,22,10,13,15.00
2009,06,22,10,14,15.00
2009,06,22,10,15,15.00
2009,06,22,10,16,15.10
2009,06,22,10,17,15.10
2009,06,22,10,18,15.20
2009,06,22,10,19,15.20
2009,06,22,10,20,15.30
2009,06,22,10,21,15.30
2009,06,22,10,22,15.40
2009,06,22,10,23,15.40
2009,06,22,10,24,15.40
2009,06,22,10,25,15.50
2009,06,22,10,26,15.60
2009,06,22,10,27,15.60
2009,06,22,10,28,15.60
2009,06,22,10,29,15.60
2009,06,22,10,30,15.70
2009,06,22,10,31,15.70
2009,06,22,10,32,15.70
2009,06,22,10,33,15.80
2009,06,22,10,34,15.80
2009,06,22,10,35,15.80
2009,06,22,10,36,15.80
2009,06,22,10,37,15.90
2009,06,22,10,38,15.90
2009,06,22,10,39,16.00
2009,06,22,10,40,16.00
2009,06,22,10,41,16.10
2009,06,22,10,42,16.10
2009,06,22,10,43,16.10
2009,06,22,10,44,16.20
2009,06,22,10,45,16.20
2009,06,22,10,46,16.30
2009,06,22,10,47,16.30
2009,06,22,10,48,16.40
2009,06,22,10,49,16.40
2009,06,22,10,50,16.50
2009,06,22,10,51,16.60
2009,06,22,10,52,16.60
2009,06,22,10,53,16.70
2009,06,22,10,54,16.70
2009,06,22,10,55,16.70
2009,06,22,10,56,16.80
2009,06,22,10,57,16.80
2009,06,22,10,58,16.80
2009,06,22,10,59,16.80
2009,06,22,11,00,16.90
2009,06,22,11,01,16.90
2009,06,22,11,02,16.90
2009,06,22,11,03,16.90
2009,06,22,11,04,16.90
2009,06,22,11,05,17.00
2009,06,22,11,06,17.00
2009,06,22,11,07,17.10
2009,06,22,11,08,17.10
2009,06,22,11,09,17.10
2009,06,22,11,10,17.10
2009,06,22,11,11,17.20
2009,06,22,11,12,17.20
2009,06,22,11,13,17.20
2009,06,22,11,14,17.30
2009,06,22,11,15,17.30
2009,06,22,11,16,17.30
2009,06,22,11,17,17.40
2009,06,22,11,18,17.40
2009,06,22,11,19,17.50
2009,06,22,11,20,17.60
2009,06,22,11,21,17.60
2009,06,22,11,22,17.70
2009,06,22,11,23,17.70
2009,06,22,11,24,17.70
2009,06,22,11,25,17.70
2009,06,22,11,26,17.70
2009,06,22,11,27,17.70
2009,06,22,11,28,17.80
2009,06,22,11,29,17.80
2009,06,22,11,30,17.80
2009,06,22,11,31,17.80
2009,06,22,11,32,17.80
2009,06,22,11,33,17.80
2009,06,22,11,34,17.80
2009,06,22,11,35,17.80
2009,06,22,11,36,17.80
2009,06,22,11,37,17.80
2009,06,22,11,38,17.80
2009,06,22,11,39,17.80
2009,06,22,11,40,17.80
2009,06,22,11,41,17.80
2009,06,22,11,42,17.80
2009,06,22,11,43,17.80
2009,06,22,11,44,17.80
2009,06,22,11,45,17.80
2009,06,22,11,46,17.80
2009,06,22,11,47,17.80
2009,06,22,11,48,17.80
2009,06,22,11,49,17.80
2009,06,22,11,50,17.80
2009,06,22,11,51,17.80
2009,06,22,11,52,17.80
2009,06,22,11,53,17.80
2009,06,22,11,54,17.80
2009,06,22,11,55,17.80
2009,06,22,11,56,17.80
2009,06,22,11,57,17.80
2009,06,22,11,58,17.80
2009,06,22,11,59,17.80
2009,06,22,12,00,17.80
2009,06,22,12,01,17.80
2009,06,22,12,02,17.80
2009,06,22,12,03,17.80
2009,06,22,12,04,17.80
2009,06,22,12,05,17.80
2009,06,22,12,06,17.80
2009,06,22,12,07,17.80
2009,06,22,12,08,17.80
2009,06,22,12,09,17.90
2009,06,22,12,10,17.90
2009,06,22,12,11,17.90
2009,06,22,12,12,18.00
2009,06,22,12,13,18.10
2009,06,22,12,14,18.10
2009,06,22,12,15,18.10
2009,06,22,12,16,18.20
2009,06,22,12,17,18.20
2009,06,22,12,18,18.30
2009,06,22,12,19,18.30
2009,06,22,12,20,18.30
2009,06,22,12,21,18.40
2009,06,22,12,22,18.50
2009,06,22,12,23,18.60
2009,06,22,12,24,18.60
2009,06,22,12,25,18.70
2009,06,22,12,26,18.70
2009,06,22,12,27,18.70
2009,06,22,12,28,18.80
2009,06,22,12,29,18.80
2009,06,22,12,30,18.80
2009,06,22,12,31,18.90
2009,06,22,12,32,18.90
2009,06,22,12,33,18.90
2009,06,22,12,34,19.00
2009,06,22,12,35,19.00
2009,06,22,12,36,19.10
2009,06,22,12,37,19.10
2009,06,22,12,38,19.20
2009,06,22,12,39,19.20
2009,06,22,12,40,19.20
2009,06,22,12,41,19.30
2009,06,22,12,42,19.30
2009,06,22,12,43,19.40
2009,06,22,12,44,19.50
2009,06,22,12,45,19.60
2009,06,22,12,46,19.70
2009,06,22,12,47,19.80
2009,06,22,12,48,19.80
2009,06,22,12,49,19.90
2009,06,22,12,50,20.00
2009,06,22,12,51,20.10
2009,06,22,12,52,20.10
2009,06,22,12,53,20.20
2009,06,22,12,54,20.20
2009,06,22,12,55,20.30
2009,06,22,12,56,20.30
2009,06,22,12,57,20.30
2009,06,22,12,58,20.40
2009,06,22,12,59,20.40
2009,06,22,13,00,20.40
2009,06,22,13,01,20.40
2009,06,22,13,02,20.50
2009,06,22,13,03,20.50
2009,06,22,13,04,20.50
2009,06,22,13,05,20.60
2009,06,22,13,06,20.60
2009,06,22,13,07,20.60
2009,06,22,13,08,20.60
2009,06,22,13,09,20.70
2009,06,22,13,10,20.70
2009,06,22,13,11,20.80
2009,06,22,13,12,20.90
2009,06,22,13,13,20.90
2009,06,22,13,14,21.10
2009,06,22,13,15,21.10
2009,06,22,13,16,21.20
2009,06,22,13,17,21.30
2009,06,22,13,18,21.30
2009,06,22,13,19,21.40
2009,06,22,13,20,21.40
2009,06,22,13,21,21.40
2009,06,22,13,22,21.50
2009,06,22,13,23,21.60
2009,06,22,13,24,21.60
2009,06,22,13,25,21.60
2009,06,22,13,26,21.60
2009,06,22,13,27,21.60
2009,06,22,13,28,21.70
2009,06,22,13,29,21.70
2009,06,22,13,30,21.70
2009,06,22,13,31,21.70
2009,06,22,13,32,21.70
2009,06,22,13,33,21.80
2009,06,22,13,34,21.80
2009,06,22,13,35,21.80
2009,06,22,13,36,21.80
2009,06,22,13,37,21.80
2009,06,22,13,38,21.80
2009,06,22,13,39,21.80
2009,06,22,13,40,21.80
2009,06,22,13,41,21.80
2009,06,22,13,42,21.90
2009,06,22,13,43,21.90
2009,06,22,13,44,21.90
2009,06,22,13,45,21.90
2009,06,22,13,46,22.00
2009,06,22,13,47,22.00
2009,06,22,13,48,22.00
2009,06,22,13,49,22.10
2009,06,22,13,50,22.10
2009,06,22,13,51,22.10
2009,06,22,13,52,22.10
2009,06,22,13,53,22.20
2009,06,22,13,54,22.20
2009,06,22,13,55,22.20
2009,06,22,13,56,22.20
2009,06,22,13,57,22.20
2009,06,22,13,58,22.20
2009,06,22,13,59,22.20
2009,06,22,14,00,22.20
2009,06,22,14,01,22.20
2009,06,22,14,02,22.30
2009,06,22,14,03,22.30
2009,06,22,14,04,22.40
2009,06,22,14,05,22.40
2009,06,22,14,06,22.50
2009,06,22,14,07,22.60
2009,06,22,14,08,22.70
2009,06,22,14,09,22.70
2009,06,22,14,10,22.70
2009,06,22,14,11,22.80
2009,06,22,14,12,22.80
2009,06,22,14,13,22.80
2009,06,22,14,14,22.80
2009,06,22,14,15,22.80
2009,06,22,14,16,22.70
2009,06,22,14,17,22.60
2009,06,22,14,18,22.50
2009,06,22,14,19,22.40
2009,06,22,14,20,22.40
2009,06,22,14,21,22.30
2009,06,22,14,22,22.30
2009,06,22,14,23,22.30
2009,06,22,14,24,22.40
2009,06,22,14,25,22.40
2009,06,22,14,26,22.60
2009,06,22,14,27,22.60
2009,06,22,14,28,22.60
2009,06,22,14,29,22.70
2009,06,22,14,30,22.70
2009,06,22,14,31,22.70
2009,06,22,14,32,22.80
2009,06,22,14,33,22.80
2009,06,22,14,34,22.80
2009,06,22,14,35,22.70
2009,06,22,14,36,22.70
2009,06,22,14,37,22.70
2009,06,22,14,38,22.70
2009,06,22,14,39,22.70
2009,06,22,14,40,22.70
2009,06,22,14,41,22.60
2009,06,22,14,42,22.60
2009,06,22,14,43,22.60
2009,06,22,14,44,22.40
2009,06,22,14,45,22.40
2009,06,22,14,46,22.40
2009,06,22,14,47,22.30
2009,06,22,14,48,22.30
2009,06,22,14,49,22.40
2009,06,22,14,50,22.40
2009,06,22,14,51,22.40
2009,06,22,14,52,22.40
2009,06,22,14,53,22.40
2009,06,22,14,54,22.40
2009,06,22,14,55,22.30
2009,06,22,14,56,22.30
2009,06,22,14,57,22.40
2009,06,22,14,58,22.40
2009,06,22,14,59,22.40
2009,06,22,15,00,22.50
2009,06,22,15,01,22.50
2009,06,22,15,02,22.60
2009,06,22,15,03,22.50
2009,06,22,15,04,22.50
2009,06,22,15,05,22.40
2009,06,22,15,06,22.40
2009,06,22,15,07,22.40
2009,06,22,15,08,22.50
2009,06,22,15,09,22.50
2009,06,22,15,10,22.50
2009,06,22,15,11,22.50
2009,06,22,15,12,22.60
2009,06,22,15,13,22.60
2009,06,22,15,14,22.60
2009,06,22,15,15,22.60
2009,06,22,15,16,22.50
2009,06,22,15,17,22.50
2009,06,22,15,18,22.50
2009,06,22,15,19,22.40
2009,06,22,15,20,22.50
2009,06,22,15,21,22.40
2009,06,22,15,22,22.40
2009,06,22,15,23,22.40
2009,06,22,15,24,22.40
2009,06,22,15,25,22.40
2009,06,22,15,26,22.40
2009,06,22,15,27,22.40
2009,06,22,15,28,22.40
2009,06,22,15,29,22.40
2009,06,22,15,30,22.40
2009,06,22,15,31,22.40
2009,06,22,15,32,22.40
2009,06,22,15,33,22.40
2009,06,22,15,34,22.30
2009,06,22,15,35,22.30
2009,06,22,15,36,22.20
2009,06,22,15,37,22.00
2009,06,22,15,38,21.90
2009,06,22,15,39,21.80
2009,06,22,15,40,21.70
2009,06,22,15,41,21.70
2009,06,22,15,42,21.60
2009,06,22,15,43,21.50
2009,06,22,15,44,21.40
2009,06,22,15,45,21.30
2009,06,22,15,46,21.30
2009,06,22,15,47,21.20
2009,06,22,15,48,21.20
2009,06,22,15,49,21.10
2009,06,22,15,50,21.10
2009,06,22,15,51,21.10
2009,06,22,15,52,21.10
2009,06,22,15,53,21.10
2009,06,22,15,54,21.10
2009,06,22,15,55,21.10
2009,06,22,15,56,21.00
2009,06,22,15,57,21.10
2009,06,22,15,58,21.10
2009,06,22,15,59,21.10
2009,06,22,16,00,21.10
2009,06,22,16,01,21.00
2009,06,22,16,02,20.90
2009,06,22,16,03,20.80
2009,06,22,16,04,20.80
2009,06,22,16,05,20.70
2009,06,22,16,06,20.60
2009,06,22,16,07,20.50
2009,06,22,16,08,20.40
2009,06,22,16,09,20.40
2009,06,22,16,10,20.30
2009,06,22,16,11,20.30
2009,06,22,16,12,20.20
2009,06,22,16,13,20.20
2009,06,22,16,14,20.10
2009,06,22,16,15,20.10
2009,06,22,16,16,20.00
2009,06,22,16,17,20.00
2009,06,22,16,18,20.00
2009,06,22,16,19,19.90
2009,06,22,16,20,19.90
2009,06,22,16,21,19.90
2009,06,22,16,22,19.90
2009,06,22,16,23,19.80
2009,06,22,16,24,19.80
2009,06,22,16,25,19.80
2009,06,22,16,26,19.80
2009,06,22,16,27,19.90
2009,06,22,16,28,19.90
2009,06,22,16,29,19.90
2009,06,22,16,30,19.90
2009,06,22,16,31,19.90
2009,06,22,16,32,19.90
2009,06,22,16,33,19.90
2009,06,22,16,34,20.00
2009,06,22,16,35,20.00
2009,06,22,16,36,20.00
2009,06,22,16,37,20.00
2009,06,22,16,38,20.10
2009,06,22,16,39,20.10
2009,06,22,16,40,20.10
2009,06,22,16,41,20.10
2009,06,22,16,42,20.10
2009,06,22,16,43,20.10
2009,06,22,16,44,20.10
2009,06,22,16,45,20.00
2009,06,22,16,46,20.00
2009,06,22,16,47,20.00
2009,06,22,16,48,19.90
2009,06,22,16,49,19.90
2009,06,22,16,50,19.90
2009,06,22,16,51,20.00
2009,06,22,16,52,20.00
2009,06,22,16,53,20.00
2009,06,22,16,54,20.00
2009,06,22,16,55,20.10
2009,06,22,16,56,20.10
2009,06,22,16,57,20.20
2009,06,22,16,58,20.20
2009,06,22,16,59,20.30
2009,06,22,17,00,20.50
2009,06,22,17,01,20.60
2009,06,22,17,02,20.70
2009,06,22,17,03,20.90
2009,06,22,17,04,21.10
2009,06,22,17,05,21.20
2009,06,22,17,06,21.20
2009,06,22,17,07,21.30
2009,06,22,17,08,21.30
2009,06,22,17,09,21.30
2009,06,22,17,10,21.30
2009,06,22,17,11,21.30
2009,06,22,17,12,21.30
2009,06,22,17,13,21.20
2009,06,22,17,14,21.20
2009,06,22,17,15,21.10
2009,06,22,17,16,21.10
2009,06,22,17,17,21.00
2009,06,22,17,18,20.90
2009,06,22,17,19,20.80
2009,06,22,17,20,20.80
2009,06,22,17,21,20.70